Wind_Speed
16 16 16 17 18 19 20 21 21 20 20 20 20 20 20 21 21 22 23 25 26 28 30 31 32 33 34 35 36 37 37 38 39 40 40 41 42 42 42 42 43 43 42 42
16 17 17 17 18 19 20 21 21 21 21 21 20 20 20 20 21 22 23 23 25 26 28 30 31 32 34 35 36 37 38 38 39 40 40 41 41 41 41 42 43 44 43 42
16 16 17 17 17 18 20 22 22 21 21 21 21 20 20 21 21 22 23 24 24 25 27 28 29 30 31 33 35 36 36 37 38 39 40 40 41 40 41 42 43 44 44 43
18 18 18 17 18 18 19 20 22 22 22 22 22 21 20 20 21 22 23 24 24 25 26 27 28 28 29 30 32 34 35 36 37 38 39 40 40 40 41 41 42 42 43 43
18 19 19 19 19 19 20 20 21 21 22 23 23 22 21 21 22 22 24 24 25 25 26 26 27 28 29 29 30 31 33 34 35 36 37 38 39 39 40 40 41 41 41 40
19 19 18 18 19 19 20 20 20 21 21 22 22 22 22 23 23 23 24 24 25 25 25 25 26 26 28 29 29 30 31 32 34 35 35 36 36 37 38 38 39 39 39 39
20 19 18 18 19 19 20 19 19 20 20 21 21 21 21 22 23 24 24 24 24 25 25 25 25 25 27 28 29 29 30 30 31 33 34 34 35 35 36 37 38 38 37 38
20 19 19 19 19 19 19 19 19 19 20 20 21 21 21 21 22 24 24 24 24 24 25 26 25 25 26 27 28 28 28 28 29 30 31 32 33 34 35 35 36 36 36 36
21 20 20 20 19 19 19 19 19 20 20 21 21 22 22 22 23 23 24 25 26 26 26 26 26 26 26 27 28 28 29 29 29 29 30 30 31 32 33 34 35 35 36 36
22 21 22 21 21 20 20 20 20 20 20 21 21 21 22 22 23 24 25 25 26 27 27 27 27 27 27 27 28 28 28 29 29 29 29 29 30 31 31 32 33 33 33 34
22 22 22 21 21 21 21 22 22 21 21 21 21 22 22 22 22 24 24 25 26 26 26 27 27 27 27 28 28 28 28 28 29 29 29 29 29 29 30 30 30 31 32 33
22 22 21 21 21 21 22 22 22 22 22 21 22 22 22 22 22 23 24 25 26 26 26 26 27 27 27 27 27 27 27 28 28 28 28 28 28 28 28 29 29 30 31 31
22 21 20 20 21 22 22 23 23 23 23 22 23 23 22 23 23 23 24 25 25 26 26 26 26 26 26 26 27 26 26 26 26 27 27 27 28 28 28 28 28 29 29 29
21 21 20 20 21 21 22 23 23 24 23 23 23 23 23 23 23 24 24 24 24 25 25 25 26 26 26 26 26 26 26 25 25 25 25 26 27 27 27 27 28 28 28 29
21 20 20 20 20 21 21 22 23 23 23 23 24 24 23 23 24 24 24 24 24 24 24 24 24 25 25 25 25 25 25 24 24 24 25 25 25 25 26 27 27 27 28 28
20 20 20 20 20 21 22 22 23 22 22 22 23 23 23 24 24 24 23 23 23 23 23 23 23 23 24 24 23 23 23 23 23 24 24 24 24 24 24 25 26 26 26 26
20 20 20 20 20 21 22 22 22 22 22 22 22 22 23 23 23 23 22 22 22 22 22 22 22 22 22 22 22 21 21 21 22 22 22 22 22 22 23 24 25 25 25 25
21 20 20 20 21 21 22 22 22 22 22 21 21 21 21 21 21 21 20 20 20 20 20 20 21 20 20 20 20 19 19 20 21 21 20 21 21 22 22 22 22 22 23 23
21 21 21 21 21 22 21 21 21 22 21 21 21 21 21 20 20 20 19 19 19 19 19 19 19 19 19 19 19 19 19 19 20 20 20 20 20 20 20 20 20 20 20 21
22 21 21 22 22 21 21 21 21 21 20 20 20 20 20 20 19 19 18 19 18 18 18 18 18 19 19 19 19 19 19 18 18 19 20 20 19 19 19 19 19 19 19 19
22 21 22 21 21 21 21 20 20 20 19 18 19 19 19 19 19 18 18 19 19 18 19 19 19 19 19 19 19 18 18 18 18 18 18 18 17 17 17 18 18 18 18 18
21 21 21 21 21 21 20 20 19 19 18 18 18 18 18 18 18 18 18 18 17 17 18 18 18 18 18 18 18 17 17 16 16 16 16 16 16 16 16 16 16 16 16 16
21 20 20 20 20 20 20 19 19 18 18 18 18 18 17 16 16 17 17 17 17 17 17 17 17 16 16 16 16 15 15 15 14 14 14 14 15 15 15 15 14 15 15 15
19 19 19 19 19 19 19 19 19 18 18 18 18 17 16 16 16 16 16 16 16 17 16 16 16 15 15 15 14 14 14 14 14 13 13 13 14 14 14 13 14 14 14 14
19 19 19 19 19 19 19 18 18 17 17 17 16 16 15 15 15 15 14 14 15 15 16 15 15 15 14 14 13 13 13 13 13 13 12 12 13 13 13 13 13 13 13 13
19 19 18 18 19 19 18 17 16 16 16 15 15 14 14 14 14 13 13 13 13 13 14 14 13 13 13 13 12 12 12 12 12 12 11 12 12 12 12 12 12 12 12 12
18 18 17 17 17 17 16 16 15 14 14 13 13 13 13 13 12 12 12 12 11 11 11 11 11 12 12 12 12 12 12 12 12 11 11 11 12 12 12 12 12 12 11 11
Wind_Direction
286 280 279 274 272 269 262 261 262 262 263 266 267 267 268 265 262 260 256 253 252 250 247 246 245 246 249 249 248 247 247 247 248 250 250 251 252 253 254 254 254 255 257 260
287 280 279 278 275 270 266 262 263 262 261 262 265 266 267 265 261 259 258 256 253 252 250 248 247 248 250 250 249 247 249 249 249 250 251 251 253 254 254 255 255 256 256 259
291 284 281 279 279 275 270 266 265 265 264 262 261 263 266 264 262 260 258 256 255 253 252 250 249 250 252 251 251 250 251 252 251 251 251 251 252 254 255 255 256 257 258 258
293 287 283 282 280 277 273 269 268 267 266 263 262 264 265 262 261 260 259 256 254 253 252 253 251 252 253 252 252 253 253 254 255 254 252 251 252 253 255 256 257 257 258 259
294 289 286 284 282 277 273 269 268 268 268 266 264 263 262 260 260 260 259 259 256 255 254 256 255 255 255 255 254 254 254 255 256 255 255 254 253 254 255 256 257 257 258 258
296 291 289 286 285 279 276 272 268 269 269 269 267 263 260 259 259 259 259 259 258 257 256 257 257 257 258 257 256 256 256 256 256 255 255 255 254 254 255 256 257 257 257 257
296 291 288 287 285 281 277 275 272 270 269 269 268 265 262 260 260 261 261 261 260 259 256 258 258 260 260 259 258 258 258 257 257 256 255 255 255 255 256 257 257 257 257 256
295 291 288 288 285 281 280 276 273 271 271 271 270 268 265 262 262 263 263 262 261 261 259 258 259 262 263 261 260 258 257 258 258 257 256 256 257 257 258 258 258 257 257 256
293 289 286 285 284 282 280 278 274 272 272 272 270 269 267 264 263 265 264 262 261 261 261 260 261 263 265 264 262 261 259 259 258 258 258 258 259 260 260 260 260 259 258 257
292 287 284 283 281 280 279 278 277 276 276 274 273 271 269 265 264 265 265 262 261 261 262 262 262 264 265 265 265 263 261 260 260 260 260 260 261 261 261 262 261 259 258 257
292 288 285 282 279 279 279 279 279 279 280 279 276 273 271 268 267 266 265 263 261 260 262 262 262 264 265 265 265 263 262 262 262 261 259 260 261 263 262 262 260 259 257 258
293 290 288 282 278 278 278 279 280 280 281 281 278 275 271 269 267 267 266 265 263 262 262 262 261 263 264 265 265 264 263 263 263 263 261 261 262 262 261 260 259 258 258 257
292 290 286 281 280 279 279 279 280 280 280 280 278 275 272 271 269 269 268 266 265 264 264 263 262 263 264 265 265 266 265 264 264 263 261 260 260 260 260 259 258 258 257 255
293 289 285 282 282 282 281 281 279 279 280 279 278 276 275 274 272 271 270 268 267 266 266 264 263 263 264 265 266 267 266 265 264 263 262 260 261 260 259 258 258 257 254 254
293 290 287 285 284 284 284 284 283 282 280 279 278 277 276 275 275 273 271 269 267 267 266 266 264 263 264 264 265 266 266 264 263 262 262 261 260 260 259 258 258 256 253 252
293 290 288 287 287 287 286 286 287 286 283 279 276 276 276 275 275 274 272 269 266 264 264 263 263 263 264 265 265 266 265 263 263 262 261 259 260 261 261 258 255 253 251 250
292 291 288 287 288 288 288 288 288 287 285 282 278 276 275 275 275 274 273 268 265 263 262 262 261 263 265 265 265 264 263 262 261 261 260 259 259 260 261 257 253 251 248 248
292 291 290 290 292 292 290 289 289 289 286 282 279 276 276 275 274 274 272 268 265 262 261 261 260 262 265 266 264 262 262 262 262 261 261 259 259 259 259 256 252 249 248 248
290 290 291 292 292 292 292 292 291 291 290 285 280 277 276 276 274 272 269 266 264 262 261 261 261 261 264 265 264 261 261 262 262 261 262 262 260 259 258 254 252 250 247 246
290 290 291 292 293 293 294 292 292 292 290 288 283 281 279 277 275 272 269 266 263 261 260 261 262 263 264 265 265 263 261 262 261 261 262 262 261 259 256 253 251 247 245 246
291 291 292 293 294 294 293 292 292 292 290 288 285 283 281 277 273 272 272 269 264 261 259 260 260 262 264 265 265 261 258 258 260 262 262 261 259 256 254 252 249 247 247 248
292 291 292 293 293 294 294 294 294 293 290 288 286 286 282 277 273 272 271 268 264 262 260 260 261 261 262 262 261 257 253 252 256 260 259 257 254 249 246 245 245 245 245 245
293 292 292 293 292 293 294 294 293 291 289 288 287 285 281 277 275 273 271 268 263 261 261 260 260 259 258 258 256 253 251 251 254 257 256 253 249 244 241 242 245 245 245 242
295 294 294 294 293 292 293 292 290 288 287 287 286 283 280 277 276 275 272 269 264 260 259 258 256 255 255 254 253 251 248 248 251 253 250 245 241 239 239 240 241 241 240 239
297 296 295 293 292 292 292 291 289 286 285 285 284 282 278 276 275 274 271 268 264 260 257 254 252 252 251 248 248 246 243 243 245 244 242 239 237 238 237 236 236 237 238 236
299 296 292 291 292 293 293 292 290 286 282 281 281 279 276 274 273 270 267 265 262 259 254 250 249 247 244 242 242 242 239 237 236 236 237 234 232 232 232 231 231 232 232 231
300 297 294 294 294 294 293 292 289 287 284 281 280 278 275 273 270 266 261 259 256 253 249 246 244 241 239 238 238 237 235 232 232 232 231 229 227 225 225 226 226 226 226 226
Height
5600 5599 5598 5597 5597 5596 5596 5596 5596 5597 5597 5597 5596 5596 5596 5596 5597 5598 5599 5600 5601 5602 5604 5606 5607 5609 5610 5612 5613 5615 5618 5620 5623 5625 5627 5629 5632 5634 5636 5638 5641 5643 5646 5648
5596 5594 5593 5593 5592 5591 5591 5590 5590 5591 5592 5591 5591 5590 5590 5590 5591 5592 5593 5593 5594 5595 5597 5598 5600 5601 5602 5603 5605 5607 5609 5611 5613 5615 5618 5620 5622 5624 5626 5629 5631 5633 5636 5638
5591 5590 5588 5588 5587 5586 5586 5585 5585 5585 5586 5585 5585 5585 5585 5585 5585 5586 5586 5587 5588 5589 5590 5591 5592 5593 5594 5595 5596 5598 5600 5602 5604 5606 5608 5610 5613 5615 5617 5619 5621 5623 5625 5627
5586 5585 5584 5585 5582 5580 5580 5580 5579 5579 5579 5579 5579 5579 5579 5579 5579 5580 5580 5580 5581 5582 5583 5583 5584 5585 5586 5587 5588 5590 5591 5593 5595 5597 5598 5600 5603 5605 5607 5609 5611 5613 5615 5617
5580 5579 5578 5579 5576 5575 5574 5574 5574 5573 5572 5572 5572 5573 5573 5572 5573 5573 5573 5574 5574 5575 5575 5576 5577 5578 5579 5579 5580 5581 5583 5584 5586 5587 5589 5591 5593 5595 5597 5599 5601 5602 5604 5606
5575 5573 5572 5574 5571 5568 5569 5569 5568 5567 5566 5566 5565 5566 5567 5566 5566 5566 5566 5567 5567 5568 5568 5569 5570 5571 5572 5572 5573 5574 5575 5576 5577 5578 5580 5582 5583 5585 5587 5589 5591 5592 5594 5596
5569 5567 5567 5567 5565 5564 5564 5564 5562 5561 5560 5560 5559 5560 5560 5559 5559 5559 5560 5560 5560 5561 5562 5562 5563 5564 5564 5565 5565 5566 5566 5567 5568 5569 5571 5572 5574 5576 5577 5579 5581 5582 5584 5585
5564 5562 5564 5560 5559 5558 5558 5557 5555 5555 5554 5554 5553 5553 5553 5553 5552 5553 5553 5553 5554 5554 5555 5555 5556 5557 5557 5557 5557 5558 5558 5559 5560 5561 5562 5563 5564 5566 5567 5569 5570 5572 5573 5575
5559 5559 5556 5554 5553 5552 5551 5550 5549 5549 5548 5547 5547 5546 5546 5546 5546 5546 5546 5546 5547 5547 5547 5548 5548 5549 5549 5549 5550 5550 5550 5551 5551 5552 5553 5554 5555 5556 5557 5558 5560 5561 5563 5565
5553 5552 5550 5548 5546 5546 5545 5544 5543 5542 5542 5541 5540 5540 5539 5539 5539 5539 5539 5539 5539 5540 5540 5541 5541 5542 5542 5542 5542 5542 5542 5543 5543 5544 5545 5545 5546 5547 5548 5549 5550 5551 5553 5555
5546 5545 5543 5542 5540 5539 5538 5537 5537 5536 5535 5534 5533 5533 5532 5532 5532 5532 5532 5532 5532 5532 5532 5533 5533 5534 5534 5534 5534 5534 5534 5535 5535 5536 5536 5537 5537 5538 5539 5540 5541 5542 5544 5546
5540 5538 5536 5535 5533 5532 5532 5531 5530 5529 5528 5527 5527 5526 5525 5525 5525 5524 5524 5524 5524 5524 5524 5524 5525 5525 5525 5526 5526 5526 5526 5527 5527 5527 5527 5528 5529 5530 5530 5531 5532 5533 5535 5537
5533 5531 5529 5528 5527 5526 5525 5524 5523 5522 5522 5521 5520 5519 5518 5518 5517 5517 5517 5516 5516 5516 5516 5516 5516 5517 5517 5517 5518 5518 5518 5518 5518 5518 5519 5519 5520 5521 5522 5523 5523 5525 5526 5528
5526 5524 5522 5521 5520 5519 5518 5517 5516 5515 5514 5514 5513 5512 5511 5511 5510 5509 5509 5508 5508 5508 5508 5508 5508 5509 5509 5509 5509 5509 5509 5510 5510 5510 5510 5511 5512 5512 5513 5514 5515 5516 5518 5519
5520 5517 5516 5515 5514 5513 5512 5510 5509 5508 5507 5506 5505 5505 5504 5503 5502 5501 5501 5500 5500 5500 5500 5500 5500 5501 5501 5501 5501 5501 5501 5501 5502 5502 5502 5503 5503 5504 5505 5506 5507 5508 5509 5511
5513 5511 5509 5508 5507 5506 5505 5503 5502 5501 5500 5499 5498 5497 5496 5495 5495 5494 5493 5493 5493 5492 5493 5493 5493 5493 5493 5493 5493 5493 5493 5493 5494 5494 5495 5495 5496 5497 5497 5498 5499 5500 5502 5504
5506 5505 5503 5502 5501 5499 5498 5496 5495 5494 5493 5492 5491 5490 5489 5488 5487 5486 5486 5485 5485 5485 5485 5486 5486 5486 5486 5486 5486 5486 5486 5486 5486 5487 5487 5488 5489 5490 5490 5490 5491 5493 5495 5497
5499 5498 5497 5495 5494 5492 5491 5489 5488 5487 5486 5485 5484 5483 5482 5481 5480 5479 5479 5478 5478 5478 5478 5479 5479 5479 5479 5479 5479 5479 5479 5480 5480 5480 5481 5481 5482 5483 5483 5484 5485 5486 5488 5490
5492 5491 5490 5488 5487 5485 5484 5483 5481 5480 5479 5477 5476 5476 5475 5474 5473 5473 5472 5472 5472 5472 5472 5472 5472 5473 5473 5473 5473 5473 5473 5474 5474 5474 5475 5475 5476 5477 5477 5478 5479 5481 5482 5484
5485 5484 5483 5481 5480 5478 5477 5476 5474 5473 5472 5471 5470 5469 5468 5467 5467 5466 5466 5466 5466 5466 5466 5466 5466 5467 5467 5467 5467 5467 5467 5468 5468 5468 5469 5470 5470 5471 5472 5473 5474 5475 5476 5478
5478 5477 5476 5474 5473 5471 5470 5468 5467 5466 5465 5464 5463 5462 5461 5461 5460 5460 5459 5459 5460 5460 5460 5460 5460 5460 5461 5461 5461 5461 5461 5462 5462 5462 5463 5464 5464 5465 5466 5467 5468 5470 5471 5472
5471 5470 5469 5468 5466 5465 5463 5462 5461 5459 5458 5457 5457 5456 5455 5454 5454 5453 5453 5453 5453 5453 5453 5454 5454 5454 5454 5455 5455 5455 5456 5456 5457 5457 5458 5458 5459 5460 5461 5462 5463 5465 5466 5467
5464 5463 5462 5461 5460 5458 5457 5456 5454 5453 5452 5451 5450 5449 5448 5448 5447 5447 5447 5447 5447 5447 5448 5448 5448 5448 5449 5449 5450 5450 5451 5451 5452 5453 5453 5454 5454 5455 5457 5458 5459 5460 5461 5463
5458 5457 5456 5454 5453 5451 5450 5449 5448 5447 5446 5445 5444 5443 5443 5442 5441 5441 5441 5441 5441 5441 5442 5442 5443 5443 5444 5444 5445 5445 5446 5447 5448 5448 5449 5450 5451 5452 5453 5454 5455 5456 5457 5459
5452 5450 5449 5448 5446 5445 5444 5443 5442 5441 5440 5439 5439 5438 5437 5436 5436 5436 5435 5435 5436 5436 5436 5437 5438 5438 5439 5440 5441 5441 5442 5443 5444 5444 5445 5446 5447 5448 5449 5450 5451 5452 5454 5455
5445 5444 5443 5441 5440 5439 5438 5437 5436 5435 5434 5434 5433 5432 5432 5431 5431 5430 5430 5431 5431 5431 5432 5433 5433 5434 5435 5436 5437 5437 5438 5439 5440 5441 5442 5442 5444 5445 5446 5447 5448 5449 5451 5452
5439 5437 5436 5435 5434 5433 5432 5431 5430 5430 5429 5428 5428 5427 5427 5426 5426 5426 5426 5427 5427 5428 5428 5429 5430 5430 5431 5432 5433 5434 5435 5436 5437 5438 5438 5439 5441 5442 5443 5444 5445 5447 5448 5449